Content
SEND FEEDBACK

Daily
Averages
Monthly
Summary
Australia

PORT AUGUSTA, SOUTH AUSTRALIA


Home > Oceania > Australia > South Australia
Elevation: 18 feet     Latitude: 32 29S     Longitude: 137 45E

WEATHER
 
SELECT A DAY
Number of Records: 103,462;   Date Range: 2/21/03 - 7/9/14
 
SHARE

PRINT THIS DATA

[ ← Previous Day ]
WEATHER ALMANAC - JANUARY 31, 2013
[ Next Day → ]
[ °C ]   °F
Weather ElementAverageHighLow
Temperature66.3 °F73.4 °F (10:30 am)57.2 °F (5:30 am)
Dewpoint52.4 °F57.2 °F (11:44 am)42.8 °F (11:30 pm)
Humidity61.4 %77 % (2:30 am)45 % (11:30 pm)
Barometer29.96 in30.04 in (9:30 pm)29.92 in (3:30 am)
Wind Speed17 mph29.9 mph (4:00 pm)
Wind Gust41.4 mph (4:00 pm)
Weather ElementAverage
Wind DirectionSW (224.8 °)

Weather ElementTotal
Precipitation---
Cooling Degree Days0.3 (Base 65)
Growing Degree Days15.3 (Base 50)
Averaged from 29 records on January 31, 2013
WEATHER CONDITIONS BREAKOUT
WIND DIRECTION BREAKOUT
WEATHER BY HOUR - JANUARY 31, 2013
[ °C ]   °F
Local TimeTemperatureDewpointHumidityBarometerVisibilityWind DirectionWind SpeedGust SpeedPrecipitationEventsConditions
1:30 AM62.6 °F53.6 °F72 %29.95 inWSW (250°)5.8 mph
2:30 AM60.8 °F53.6 °F77 %29.95 inWest (260°)6.9 mph
3:30 AM60.8 °F51.8 °F72 %29.92 inWest (260°)4.6 mphScattered Clouds
4:30 AM59.0 °F51.8 °F77 %29.92 inWNW (290°)4.6 mph
5:30 AM57.2 °F50.0 °F77 %29.92 inNW (320°)3.5 mph
6:30 AM57.2 °F50.0 °F77 %29.92 inNW (320°)4.6 mph
7:30 AM60.8 °F51.8 °F72 %29.92 inNNW (340°)3.5 mphMostly Cloudy
8:30 AM68.0 °F55.4 °F64 %29.95 inWest (260°)11.5 mphMostly Cloudy
9:30 AM69.8 °F53.6 °F56 %29.95 inWest (260°)12.7 mph
10:30 AM73.4 °F53.6 °F50 %29.95 inWest (260°)13.8 mphScattered Clouds
11:30 AM71.6 °F55.4 °F57 %29.95 inSouth (170°)11.5 mphOvercast
11:44 AM69.8 °F57.2 °F64 %29.95 inSSW (210°)21.9 mphOvercast
12:23 PM69.8 °F55.4 °F60 %29.95 inSW (220°)17.3 mph28.8 mphOvercast
12:30 PM68.0 °F53.6 °F60 %29.95 inSW (220°)21.9 mphOvercast
1:30 PM73.4 °F51.8 °F47 %29.95 inSouth (170°)15.0 mphOvercast
2:22 PM69.8 °F57.2 °F64 %29.92 inSouth (180°)25.3 mphOvercast
2:32 PM69.8 °F57.2 °F64 %29.95 inSouth (190°)26.5 mph38.0 mphOvercast
3:30 PM69.8 °F53.6 °F56 %29.95 inSouth (190°)24.2 mphMostly Cloudy
3:54 PM66.2 °F55.4 °F68 %29.95 inSouth (180°)26.5 mph39.1 mphOvercast
4:00 PM66.2 °F53.6 °F64 %29.95 inSouth (190°)29.9 mph41.4 mphOvercast
4:30 PM69.8 °F55.4 °F60 %29.95 inSouth (190°)26.5 mph38.0 mphScattered Clouds
5:33 PM68.0 °F51.8 °F56 %29.95 inSouth (190°)23.0 mph34.5 mphScattered Clouds
6:30 PM69.8 °F53.6 °F56 %29.95 inSouth (190°)25.3 mphOvercast
7:30 PM68.0 °F48.2 °F49 %29.98 inSouth (190°)24.2 mph
8:30 PM66.2 °F46.4 °F49 %30.01 inSSW (200°)23.0 mph
8:53 PM64.4 °F48.2 °F56 %30.01 inSSW (210°)19.6 mph31.1 mph
9:30 PM64.4 °F48.2 °F56 %30.04 inSSW (210°)17.3 mph
10:30 PM64.4 °F48.2 °F56 %30.04 inSSW (210°)19.6 mph
11:30 PM64.4 °F42.8 °F45 %30.04 inSouth (190°)21.9 mphScattered Clouds
Hourly data recorded from YPAG, located miles away from Port Augusta, South Australia







STORIES FROM OUR PARTNERS